Location: Unspecified
(0.0000°N, 0.0000°E)
Time: 15:57:20
(UTC+00:00)

deb Delta 126 - Pass Details

Date: 14 February 2026
Orbit: 1137 x 1258 km, 102.0° (Epoch: 9 March)

Event Time Altitude Azimuth Distance (km) Brightness Sun altitude
Rises 04:14:08 0° 189° (S) 4,178 ? -29.2°
Reaches altitude 10° 04:17:18 10° 201° (SSW) 3,221 ? -28.4°
Enters shadow 04:19:37 18° 217° (SW) 2,659 ? -27.8°
